N0NB Weather Reports


Display with metric or nautical units.
time (UTC)temp
F
wind
direction
speed
MPH
gust
MPH
rain 1hr
in
rain 24hr
in
rain mn
in
humidity
%
barometer
mb
20180218012517 34 0.0 0.0 0.00 0.00 0.00 56 1021.2
20180218011516 35 0.0 0.0 0.00 0.00 0.00 54 1021.2
20180218010516 37 0.0 0.0 0.00 0.00 0.00 50 1021.1
20180218005516 38 0.0 0.0 0.00 0.00 0.00 48 1020.9
20180218004516 40 0.0 0.0 0.00 0.00 0.00 46 1020.9
20180218003516 41 0.0 0.0 0.00 0.00 0.00 44 1020.9
20180218002516 43 0.0 0.0 0.00 0.00 0.00 41 1020.8
20180218001516 46 0.0 0.0 0.00 0.00 0.00 39 1020.8
20180218000516 48 0.0 0.0 0.00 0.00 0.00 37 1020.7
20180217235516 49 315 2.0 3.0 0.00 0.00 0.00 35 1020.7
20180217234516 50 315 1.0 7.0 0.00 0.00 0.00 34 1020.6
20180217233516 51 315 4.0 10.0 0.00 0.00 0.00 33 1020.5
20180217232516 52 315 3.0 7.0 0.00 0.00 0.00 32 1020.6
20180217231516 52 292 4.0 9.0 0.00 0.00 0.00 32 1020.6
20180217230516 53 292 6.0 12.0 0.00 0.00 0.00 32 1020.6
20180217225516 53 315 6.0 11.0 0.00 0.00 0.00 31 1020.5
20180217224516 53 292 6.0 12.0 0.00 0.00 0.00 31 1020.5
20180217223516 53 292 5.0 10.0 0.00 0.00 0.00 31 1020.3
20180217222516 53 315 5.0 11.0 0.00 0.00 0.00 31 1020.2
20180217221516 54 315 5.0 10.0 0.00 0.00 0.00 30 1020.1
20180217220516 54 315 5.0 10.0 0.00 0.00 0.00 30 1020.1
20180217215517 53 292 6.0 13.0 0.00 0.00 0.00 30 1020.1
20180217214515 54 292 6.0 10.0 0.00 0.00 0.00 30 1019.9
20180217213516 53 292 7.0 14.0 0.00 0.00 0.00 30 1020.1
20180217212517 53 292 8.0 15.0 0.00 0.00 0.00 30 1020.1
20180217211515 54 292 7.0 15.0 0.00 0.00 0.00 30 1019.9
20180217210517 53 292 7.0 14.0 0.00 0.00 0.00 30 1019.9
20180217205518 54 315 6.0 17.0 0.00 0.00 0.00 29 1019.9
20180217204518 53 315 6.0 12.0 0.00 0.00 0.00 30 1019.8
20180217203518 53 315 9.0 16.0 0.00 0.00 0.00 29 1019.8
20180217202517 53 315 8.0 18.0 0.00 0.00 0.00 31 1019.8
20180217201517 53 315 7.0 14.0 0.00 0.00 0.00 30 1019.7
20180217200518 53 292 9.0 15.0 0.00 0.00 0.00 30 1019.7
20180217195517 53 337 6.0 13.0 0.00 0.00 0.00 32 1019.6
20180217194518 52 292 8.0 14.0 0.00 0.00 0.00 33 1019.7
20180217193517 52 315 3.0 10.0 0.00 0.00 0.00 34 1019.6
20180217192517 51 315 7.0 16.0 0.00 0.00 0.00 34 1019.7
20180217191518 51 315 7.0 13.0 0.00 0.00 0.00 36 1019.8
20180217190517 51 315 6.0 12.0 0.00 0.00 0.00 37 1019.8
20180217185517 51 315 6.0 14.0 0.00 0.00 0.00 38 1019.9
20180217184517 50 315 7.0 17.0 0.00 0.00 0.00 40 1019.8
20180217183517 50 315 8.0 18.0 0.00 0.00 0.00 42 1019.6
20180217182518 49 315 8.0 14.0 0.00 0.00 0.00 43 1019.4
20180217181517 49 315 8.0 15.0 0.00 0.00 0.00 44 1019.3
20180217180517 49 337 6.0 14.0 0.00 0.00 0.00 47 1019.1
20180217175517 48 315 6.0 14.0 0.00 0.00 0.00 50 1019.0
20180217174517 47 315 6.0 13.0 0.00 0.00 0.00 52 1018.8
20180217173517 46 292 8.0 13.0 0.00 0.00 0.00 53 1018.5
20180217172517 46 292 8.0 14.0 0.00 0.00 0.00 53 1018.4
20180217171517 45 315 6.0 12.0 0.00 0.00 0.00 54 1018.6
20180217170517 44 315 8.0 13.0 0.00 0.00 0.00 54 1018.3
20180217165517 44 315 6.0 12.0 0.00 0.00 0.00 54 1018.1
20180217164517 44 315 7.0 13.0 0.00 0.00 0.00 54 1017.8
20180217163517 43 337 5.0 11.0 0.00 0.00 0.00 55 1017.7
20180217162517 42 315 7.0 16.0 0.00 0.00 0.00 55 1017.5
20180217161518 42 315 9.0 17.0 0.00 0.00 0.00 55 1017.2
20180217160517 41 315 3.0 12.0 0.00 0.00 0.00 57 1017.2
20180217155517 40 315 7.0 13.0 0.00 0.00 0.00 56 1016.8
20180217154517 39 315 9.0 18.0 0.00 0.00 0.00 56 1016.8
20180217153518 38 292 7.0 16.0 0.00 0.00 0.00 58 1016.9
20180217152517 36 292 7.0 12.0 0.00 0.00 0.00 60 1016.8
20180217151517 35 292 8.0 15.0 0.00 0.00 0.00 61 1016.3
20180217150517 34 270 12.0 16.0 0.00 0.00 0.00 63 1016.0
20180217145517 32 270 10.0 15.0 0.00 0.00 0.00 65 1015.8
20180217144517 32 270 12.0 19.0 0.00 0.00 0.00 65 1015.5
20180217143517 31 270 11.0 18.0 0.00 0.00 0.00 66 1015.7
20180217142517 30 270 9.0 18.0 0.00 0.00 0.00 69 1015.7
20180217141517 29 247 10.0 16.0 0.00 0.00 0.00 71 1015.5
20180217140517 29 247 9.0 12.0 0.00 0.00 0.00 73 1015.5
20180217135516 28 247 8.0 11.0 0.00 0.00 0.00 74 1015.4
20180217134517 27 247 7.0 11.0 0.00 0.00 0.00 75 1015.4
20180217133517 27 247 6.0 10.0 0.00 0.00 0.00 75 1015.5
20180217132517 27 247 3.0 9.0 0.00 0.00 0.00 74 1015.3
20180217131517 28 270 5.0 10.0 0.00 0.00 0.00 72 1015.3
20180217130517 28 247 8.0 13.0 0.00 0.00 0.00 71 1014.9
20180217125517 28 225 8.0 12.0 0.00 0.00 0.00 71 1014.5
20180217124516 28 247 6.0 11.0 0.00 0.00 0.00 71 1014.6
20180217123516 28 225 5.0 9.0 0.00 0.00 0.00 70 1014.3
20180217122518 29 225 5.0 10.0 0.00 0.00 0.00 70 1014.2
20180217121516 29 225 5.0 8.0 0.00 0.00 0.00 69 1014.5
20180217120516 29 225 4.0 11.0 0.00 0.00 0.00 68 1014.4
20180217115517 29 225 2.0 6.0 0.00 0.00 0.00 67 1014.4
20180217114516 30 202 3.0 6.0 0.00 0.00 0.00 66 1014.4
20180217113517 30 202 1.0 5.0 0.00 0.00 0.00 65 1014.5
20180217112516 31 202 5.0 8.0 0.00 0.00 0.00 63 1014.6
20180217111518 31 180 6.0 10.0 0.00 0.00 0.00 63 1014.5
20180217110516 31 202 4.0 9.0 0.00 0.00 0.00 63 1014.6
20180217105516 31 180 3.0 9.0 0.00 0.00 0.00 64 1014.8
20180217104516 31 0.0 0.0 0.00 0.00 0.00 63 1014.8
20180217103516 31 180 2.0 5.0 0.00 0.00 0.00 63 1014.9
20180217102516 31 157 2.0 8.0 0.00 0.00 0.00 62 1015.1
20180217101516 31 157 5.0 11.0 0.00 0.00 0.00 62 1015.2
20180217100516 31 157 1.0 6.0 0.00 0.00 0.00 62 1015.7
20180217095516 30 157 2.0 8.0 0.00 0.00 0.00 62 1015.9
20180217094516 30 157 3.0 8.0 0.00 0.00 0.00 62 1015.7
20180217093516 30 157 5.0 8.0 0.00 0.00 0.00 61 1015.8
20180217092516 31 157 5.0 10.0 0.00 0.00 0.00 60 1016.2
20180217091516 31 180 4.0 9.0 0.00 0.00 0.00 61 1016.4
20180217090516 31 180 4.0 9.0 0.00 0.00 0.00 60 1016.9
20180217085516 31 157 6.0 12.0 0.00 0.00 0.00 60 1016.7
20180217084516 30 180 5.0 10.0 0.00 0.00 0.00 61 1017.2
20180217083516 30 180 4.0 8.0 0.00 0.00 0.00 61 1017.6
20180217082517 29 180 4.0 10.0 0.00 0.00 0.00 62 1017.9
20180217081518 29 157 5.0 10.0 0.00 0.00 0.00 62 1017.8
20180217080516 28 157 2.0 8.0 0.00 0.00 0.00 61 1018.0
20180217075516 29 180 5.0 7.0 0.00 0.00 0.00 60 1018.3
20180217074516 28 180 3.0 10.0 0.00 0.00 0.00 61 1018.7
20180217073516 27 180 3.0 7.0 0.00 0.00 0.00 63 1018.5
20180217072516 27 157 2.0 9.0 0.00 0.00 0.00 64 1018.5
20180217071516 26 180 1.0 5.0 0.00 0.00 0.00 64 1018.8
20180217070516 26 0.0 0.0 0.00 0.00 0.00 64 1018.8
20180217065517 26 157 3.0 8.0 0.00 0.00 0.00 64 1018.8
20180217064516 26 0.0 1.0 0.00 0.00 0.00 64 1019.1
20180217063516 26 0.0 4.0 0.00 0.00 0.00 64 1019.5
20180217062516 25 157 1.0 6.0 0.00 0.00 0.00 66 1019.6
20180217061516 24 0.0 0.0 0.00 0.00 0.00 66 1019.9
20180217060516 25 0.0 0.0 0.00 0.00 0.00 66 1020.0
20180217055517 24 0.0 0.0 0.00 0.00 0.00 66 1020.2
20180217054517 25 0.0 0.0 0.00 0.00 0.00 64 1020.3
20180217053517 25 0.0 0.0 0.00 0.00 0.00 65 1020.4
20180217052517 25 0.0 0.0 0.00 0.00 0.00 65 1020.2
20180217051517 26 0.0 0.0 0.00 0.00 0.00 63 1020.6
20180217050517 26 157 3.0 5.0 0.00 0.00 0.00 62 1020.7
20180217045519 26 157 2.0 6.0 0.00 0.00 0.00 61 1021.1
20180217044517 26 0.0 0.0 0.00 0.00 0.00 61 1021.3
20180217043519 26 0.0 1.0 0.00 0.00 0.00 62 1021.5
20180217042517 26 0.0 0.0 0.00 0.00 0.00 63 1021.7
20180217041517 27 0.0 0.0 0.00 0.00 0.00 62 1021.9
20180217040517 27 0.0 0.0 0.00 0.00 0.00 61 1022.0
20180217035517 27 180 1.0 6.0 0.00 0.00 0.00 62 1021.9
20180217034517 26 0.0 0.0 0.00 0.00 0.00 64 1022.0
20180217033517 26 180 1.0 4.0 0.00 0.00 0.00 65 1022.1
20180217032517 26 0.0 0.0 0.00 0.00 0.00 65 1022.4
20180217031517 26 0.0 0.0 0.00 0.00 0.00 65 1022.4
20180217030517 27 0.0 0.0 0.00 0.00 0.00 62 1022.3
20180217025517 27 0.0 0.0 0.00 0.00 0.00 62 1022.3
20180217024517 27 0.0 0.0 0.00 0.00 0.00 63 1022.5
20180217023516 27 0.0 0.0 0.00 0.00 0.00 63 1022.6
20180217022517 27 0.0 0.0 0.00 0.00 0.00 63 1022.7
20180217021517 27 0.0 0.0 0.00 0.00 0.00 61 1022.9
20180217020517 26 0.0 0.0 0.00 0.00 0.00 62 1023.1
20180217015516 26 0.0 0.0 0.00 0.00 0.00 64 1023.1
20180217014516 26 0.0 0.0 0.00 0.00 0.00 64 1023.2
20180217013516 27 0.0 0.0 0.00 0.00 0.00 62 1023.5